Tracking 18785 objects as of 27-July-2017
HD Live streaming from Space Station
objects crossing your sky now
MAYAK may become the brightest orbital object in the night sky!
Where is MAYAK now?
How to spot MAYAK

AMC-5 (GE-5)

Track AMC-5 (GE-5) now!
AMC-5 (GE-5) is classified as:


NORAD ID: 25516
Int'l Code: 1998-063B
Perigee: 36,057.1 km
Apogee: 36,062.4 km
Inclination: 5.5 °
Period: 1,449.7 minutes
Semi major axis: 42430 km
RCS: 9.3322 m2 (large)
Launch date: October 28, 1998
Source: SOCIETE EUROPEENNE DES SATELLITES (SES)
Launch site: FRENCH GUIANA (FRGUI)

Broadband internet, business television; 16 Ku-band; CONUS
Your satellite tracking list
Your tracking list is empty





NASA's NSSDC Master Catalog

Two Line Element Set (TLE):
1 25516U 98063B   17207.53844333 -.00000089 +00000-0 +00000-0 0  9993
2 25516 005.4520 060.3614 0000622 087.1601 262.0100 00.99330215068568
Source of the keplerian elements: AFSPC